contact:dominique.lefevre@mio.osupytheas.fr, maurice.libes@osupytheas.fr, didier.mallarino@osupytheas.fr
Project:EMSO http://www.emso-fr.org/EMSO-France
Depth: 2436.0 m
Title:EMSO Ligure Ouest : Data MII capteur MICROCAT
DateTime_Computer,Latitude,Longitude,Temperature,Conductivity,Pressure,DateTime_Instrument
DateTime_Computer,Latitude,Longitude,degC,S m-1,dbar,DateTime_Instrument
2019-09-17T00:00:53Z,42.805,6.029,13.2958,4.59958,2469.853,2019-9-17T02:01:16Z
2019-09-17T00:03:56Z,42.805,6.029,13.2957,4.59958,2469.853,2019-9-17T02:04:19Z
2019-09-17T00:06:59Z,42.805,6.029,13.2961,4.59958,2469.83,2019-9-17T02:07:23Z
2019-09-17T00:10:03Z,42.805,6.029,13.2956,4.59963,2469.83,2019-9-17T02:10:26Z
2019-09-17T00:13:06Z,42.805,6.029,13.2958,4.59963,2469.853,2019-9-17T02:13:29Z
2019-09-17T00:16:09Z,42.805,6.029,13.2958,4.59962,2469.83,2019-9-17T02:16:32Z
2019-09-17T00:19:12Z,42.805,6.029,13.2959,4.59959,2469.853,2019-9-17T02:19:35Z
2019-09-17T00:22:15Z,42.805,6.029,13.2958,4.59961,2469.853,2019-9-17T02:22:39Z
2019-09-17T00:25:19Z,42.805,6.029,13.2958,4.59972,2469.853,2019-9-17T02:25:42Z
2019-09-17T00:28:22Z,42.805,6.029,13.2957,4.59958,2469.806,2019-9-17T02:28:45Z
2019-09-17T00:31:25Z,42.805,6.029,13.2960,4.59958,2469.844,2019-9-17T02:31:48Z
2019-09-17T00:34:28Z,42.805,6.029,13.2959,4.59960,2469.867,2019-9-17T02:34:52Z
2019-09-17T00:37:32Z,42.805,6.029,13.2957,4.59960,2469.844,2019-9-17T02:37:55Z
2019-09-17T00:40:35Z,42.805,6.029,13.2963,4.59960,2469.83,2019-9-17T02:40:58Z
2019-09-17T00:43:38Z,42.805,6.029,13.2958,4.59960,2469.844,2019-9-17T02:44:01Z
2019-09-17T00:46:41Z,42.805,6.029,13.2959,4.59971,2469.83,2019-9-17T02:47:05Z
2019-09-17T00:49:45Z,42.805,6.029,13.2958,4.59973,2469.844,2019-9-17T02:50:08Z
2019-09-17T00:52:48Z,42.805,6.029,13.2961,4.59961,2469.844,2019-9-17T02:53:11Z
2019-09-17T00:55:51Z,42.805,6.029,13.2958,4.59959,2469.783,2019-9-17T02:56:14Z
2019-09-17T00:58:54Z,42.805,6.029,13.2962,4.59960,2469.844,2019-9-17T02:59:17Z
2019-09-17T01:01:57Z,42.805,6.029,13.2961,4.59963,2469.821,2019-9-17T03:02:21Z
2019-09-17T01:05:01Z,42.805,6.029,13.2961,4.59968,2469.806,2019-9-17T03:05:24Z
2019-09-17T01:08:04Z,42.805,6.029,13.2958,4.59962,2469.867,2019-9-17T03:08:27Z
2019-09-17T01:11:07Z,42.805,6.029,13.2956,4.59958,2469.783,2019-9-17T03:11:30Z
2019-09-17T01:14:10Z,42.805,6.029,13.2961,4.59966,2469.821,2019-9-17T03:14:33Z
2019-09-17T01:17:13Z,42.805,6.029,13.2961,4.59968,2469.806,2019-9-17T03:17:37Z
2019-09-17T01:20:17Z,42.805,6.029,13.2957,4.59959,2469.806,2019-9-17T03:20:40Z
2019-09-17T01:23:20Z,42.805,6.029,13.2957,4.59964,2469.806,2019-9-17T03:23:43Z
2019-09-17T01:26:23Z,42.805,6.029,13.2958,4.59966,2469.821,2019-9-17T03:26:46Z
2019-09-17T01:29:26Z,42.805,6.029,13.2957,4.59966,2469.797,2019-9-17T03:29:49Z
2019-09-17T01:32:29Z,42.805,6.029,13.2961,4.59961,2469.806,2019-9-17T03:32:53Z
2019-09-17T01:35:33Z,42.805,6.029,13.2959,4.59962,2469.821,2019-9-17T03:35:56Z
2019-09-17T01:38:36Z,42.805,6.029,13.2954,4.59958,2469.773,2019-9-17T03:38:59Z
2019-09-17T01:41:39Z,42.805,6.029,13.2961,4.59970,2469.806,2019-9-17T03:42:02Z
2019-09-17T01:44:42Z,42.805,6.029,13.2961,4.59971,2469.797,2019-9-17T03:45:05Z
2019-09-17T01:47:45Z,42.805,6.029,13.2961,4.59964,2469.797,2019-9-17T03:48:09Z
2019-09-17T01:50:49Z,42.805,6.029,13.2960,4.59962,2469.797,2019-9-17T03:51:12Z
2019-09-17T01:53:52Z,42.805,6.029,13.2958,4.59961,2469.76,2019-9-17T03:54:15Z
2019-09-17T01:56:55Z,42.805,6.029,13.2955,4.59973,2469.797,2019-9-17T03:57:18Z
2019-09-17T01:59:58Z,42.805,6.029,13.2962,4.59976,2469.783,2019-9-17T04:00:22Z
2019-09-17T02:03:02Z,42.805,6.029,13.2958,4.59976,2469.769,2019-9-17T04:03:25Z
2019-09-17T02:06:05Z,42.805,6.029,13.2961,4.59980,2469.773,2019-9-17T04:06:28Z
2019-09-17T02:09:08Z,42.805,6.029,13.2958,4.59976,2469.797,2019-9-17T04:09:31Z
2019-09-17T02:12:11Z,42.805,6.029,13.2957,4.59966,2469.76,2019-9-17T04:12:34Z
2019-09-17T02:15:14Z,42.805,6.029,13.2963,4.59968,2469.76,2019-9-17T04:15:38Z
2019-09-17T02:18:18Z,42.805,6.029,13.2957,4.59966,2469.773,2019-9-17T04:18:41Z
2019-09-17T02:21:21Z,42.805,6.029,13.2956,4.59982,2469.797,2019-9-17T04:21:44Z
2019-09-17T02:24:24Z,42.805,6.029,13.2958,4.59980,2469.76,2019-9-17T04:24:47Z
2019-09-17T02:27:27Z,42.805,6.029,13.2962,4.59964,2469.75,2019-9-17T04:27:50Z
2019-09-17T02:30:30Z,42.805,6.029,13.2962,4.59983,2469.783,2019-9-17T04:30:54Z
2019-09-17T02:33:34Z,42.805,6.029,13.2961,4.59966,2469.764,2019-9-17T04:33:58Z
2019-09-17T02:36:38Z,42.805,6.029,13.2961,4.59973,2469.737,2019-9-17T04:37:01Z
2019-09-17T02:39:41Z,42.805,6.029,13.2959,4.59960,2469.773,2019-9-17T04:40:04Z
2019-09-17T02:42:44Z,42.805,6.029,13.2957,4.59963,2469.737,2019-9-17T04:43:07Z
2019-09-17T02:45:47Z,42.805,6.029,13.2993,4.59968,2469.773,2019-9-17T04:46:10Z
2019-09-17T02:48:50Z,42.805,6.029,13.2961,4.60026,2469.76,2019-9-17T04:49:13Z
2019-09-17T02:51:53Z,42.805,6.029,13.2962,4.60003,2469.76,2019-9-17T04:52:17Z
2019-09-17T02:54:57Z,42.805,6.029,13.2958,4.59981,2469.783,2019-9-17T04:55:20Z
2019-09-17T02:58:00Z,42.805,6.029,13.2958,4.59978,2469.76,2019-9-17T04:58:23Z
2019-09-17T03:01:03Z,42.805,6.029,13.2963,4.59971,2469.797,2019-9-17T05:01:26Z
2019-09-17T03:04:06Z,42.805,6.029,13.3069,4.59976,2469.76,2019-9-17T05:04:29Z
2019-09-17T03:07:09Z,42.805,6.029,13.2962,4.59972,2469.76,2019-9-17T05:07:33Z
2019-09-17T03:10:13Z,42.805,6.029,13.2964,4.59966,2469.821,2019-9-17T05:10:36Z
2019-09-17T03:13:16Z,42.805,6.029,13.2963,4.59963,2469.773,2019-9-17T05:13:39Z
2019-09-17T03:16:19Z,42.805,6.029,13.2963,4.59973,2469.797,2019-9-17T05:16:42Z
2019-09-17T03:19:22Z,42.805,6.029,13.2958,4.59963,2469.76,2019-9-17T05:19:45Z
2019-09-17T03:22:25Z,42.805,6.029,13.2962,4.59969,2469.783,2019-9-17T05:22:49Z
2019-09-17T03:25:29Z,42.805,6.029,13.2962,4.59971,2469.75,2019-9-17T05:25:52Z
2019-09-17T03:28:32Z,42.805,6.029,13.2960,4.59966,2469.75,2019-9-17T05:28:56Z
2019-09-17T03:31:36Z,42.805,6.029,13.2964,4.59965,2469.75,2019-9-17T05:31:59Z
2019-09-17T03:34:39Z,42.805,6.029,13.2957,4.59973,2469.737,2019-9-17T05:35:02Z
2019-09-17T03:37:42Z,42.805,6.029,13.2962,4.59967,2469.773,2019-9-17T05:38:05Z
2019-09-17T03:40:45Z,42.805,6.029,13.2962,4.59966,2469.76,2019-9-17T05:41:08Z
2019-09-17T03:43:48Z,42.805,6.029,13.2962,4.59966,2469.783,2019-9-17T05:44:12Z
2019-09-17T03:46:52Z,42.805,6.029,13.2968,4.59966,2469.773,2019-9-17T05:47:15Z
2019-09-17T03:49:55Z,42.805,6.029,13.2965,4.59969,2469.76,2019-9-17T05:50:18Z
2019-09-17T03:52:58Z,42.805,6.029,13.2966,4.59976,2469.773,2019-9-17T05:53:21Z
2019-09-17T03:56:01Z,42.805,6.029,13.2964,4.59986,2469.773,2019-9-17T05:56:24Z
2019-09-17T03:59:04Z,42.805,6.029,13.2961,4.59988,2469.76,2019-9-17T05:59:28Z
2019-09-17T04:02:08Z,42.805,6.029,13.2969,4.59984,2469.75,2019-9-17T06:02:31Z
2019-09-17T04:05:11Z,42.805,6.029,13.2971,4.59982,2469.773,2019-9-17T06:05:34Z
2019-09-17T04:08:14Z,42.805,6.029,13.2974,4.59979,2469.76,2019-9-17T06:08:37Z
2019-09-17T04:11:17Z,42.805,6.029,13.2974,4.59982,2469.821,2019-9-17T06:11:40Z
2019-09-17T04:14:20Z,42.805,6.029,13.2982,4.59975,2469.76,2019-9-17T06:14:44Z
2019-09-17T04:17:24Z,42.805,6.029,13.2989,4.59977,2469.783,2019-9-17T06:17:47Z
2019-09-17T04:20:27Z,42.805,6.029,13.2991,4.59983,2469.783,2019-9-17T06:20:50Z
2019-09-17T04:23:30Z,42.805,6.029,13.2977,4.59986,2469.797,2019-9-17T06:23:53Z
2019-09-17T04:26:33Z,42.805,6.029,13.2990,4.59979,2469.821,2019-9-17T06:26:56Z
2019-09-17T04:29:36Z,42.805,6.029,13.2976,4.59998,2469.797,2019-9-17T06:30:00Z
2019-09-17T04:32:40Z,42.805,6.029,13.2976,4.60026,2469.783,2019-9-17T06:33:03Z
2019-09-17T04:35:43Z,42.805,6.029,13.2967,4.60033,2469.773,2019-9-17T06:36:06Z
2019-09-17T04:38:46Z,42.805,6.029,13.2968,4.60028,2469.797,2019-9-17T06:39:09Z
2019-09-17T04:41:49Z,42.805,6.029,13.2984,4.60027,2469.797,2019-9-17T06:42:13Z
2019-09-17T04:44:52Z,42.805,6.029,13.2992,4.60046,2469.821,2019-9-17T06:45:16Z
2019-09-17T04:47:56Z,42.805,6.029,13.2996,4.60012,2469.783,2019-9-17T06:48:19Z
2019-09-17T04:50:59Z,42.805,6.029,13.2964,4.59998,2469.797,2019-9-17T06:51:22Z
2019-09-17T04:54:02Z,42.805,6.029,13.2962,4.60008,2469.773,2019-9-17T06:54:25Z
2019-09-17T04:57:05Z,42.805,6.029,13.2962,4.60016,2469.797,2019-9-17T06:57:29Z
2019-09-17T05:00:09Z,42.805,6.029,13.2965,4.60052,2469.821,2019-9-17T07:00:32Z
2019-09-17T05:03:12Z,42.805,6.029,13.3024,4.60001,2469.76,2019-9-17T07:03:35Z
2019-09-17T05:06:15Z,42.805,6.029,13.2966,4.60033,2469.821,2019-9-17T07:06:38Z
2019-09-17T05:09:18Z,42.805,6.029,13.2964,4.60020,2469.821,2019-9-17T07:09:41Z
2019-09-17T05:12:21Z,42.805,6.029,13.2971,4.60019,2469.806,2019-9-17T07:12:45Z
2019-09-17T05:15:25Z,42.805,6.029,13.2971,4.60011,2469.821,2019-9-17T07:15:48Z
2019-09-17T05:18:28Z,42.805,6.029,13.2965,4.60024,2469.83,2019-9-17T07:18:51Z
2019-09-17T05:21:31Z,42.805,6.029,13.2962,4.60055,2469.797,2019-9-17T07:21:54Z
2019-09-17T05:24:34Z,42.805,6.029,13.2965,4.60030,2469.773,2019-9-17T07:24:58Z
2019-09-17T05:27:38Z,42.805,6.029,13.2965,4.60034,2469.83,2019-9-17T07:28:01Z
2019-09-17T05:30:41Z,42.805,6.029,13.2961,4.60036,2469.821,2019-9-17T07:31:04Z
2019-09-17T05:33:44Z,42.805,6.029,13.2961,4.60047,2469.821,2019-9-17T07:34:08Z
2019-09-17T05:36:48Z,42.805,6.029,13.2963,4.60053,2469.783,2019-9-17T07:37:11Z
2019-09-17T05:39:51Z,42.805,6.029,13.2961,4.60041,2469.806,2019-9-17T07:40:14Z
2019-09-17T05:42:54Z,42.805,6.029,13.2962,4.60045,2469.844,2019-9-17T07:43:17Z
2019-09-17T05:45:57Z,42.805,6.029,13.2960,4.59992,2469.83,2019-9-17T07:46:20Z
2019-09-17T05:49:00Z,42.805,6.029,13.2963,4.59994,2469.806,2019-9-17T07:49:24Z
2019-09-17T05:52:04Z,42.805,6.029,13.2961,4.59993,2469.83,2019-9-17T07:52:27Z
2019-09-17T05:55:07Z,42.805,6.029,13.2958,4.59991,2469.806,2019-9-17T07:55:30Z
2019-09-17T05:58:10Z,42.805,6.029,13.2958,4.59992,2469.844,2019-9-17T07:58:33Z
2019-09-17T06:01:13Z,42.805,6.029,13.2960,4.59992,2469.853,2019-9-17T08:01:36Z
2019-09-17T06:04:17Z,42.805,6.029,13.2959,4.59999,2469.844,2019-9-17T08:04:40Z
2019-09-17T06:07:20Z,42.805,6.029,13.2959,4.59991,2469.853,2019-9-17T08:07:43Z
2019-09-17T06:10:23Z,42.805,6.029,13.2959,4.59989,2469.844,2019-9-17T08:10:46Z
2019-09-17T06:13:26Z,42.805,6.029,13.2957,4.59983,2469.853,2019-9-17T08:13:49Z
2019-09-17T06:16:29Z,42.805,6.029,13.2954,4.59987,2469.867,2019-9-17T08:16:53Z
2019-09-17T06:19:33Z,42.805,6.029,13.2961,4.59989,2469.83,2019-9-17T08:19:56Z
2019-09-17T06:22:36Z,42.805,6.029,13.2962,4.59989,2469.876,2019-9-17T08:22:59Z
2019-09-17T06:25:39Z,42.805,6.029,13.2964,4.59986,2469.83,2019-9-17T08:26:02Z
2019-09-17T06:28:42Z,42.805,6.029,13.2958,4.59991,2469.876,2019-9-17T08:29:05Z
2019-09-17T06:31:45Z,42.805,6.029,13.2958,4.59983,2469.83,2019-9-17T08:32:09Z
2019-09-17T06:34:48Z,42.805,6.029,13.2960,4.59987,2469.89,2019-9-17T08:35:12Z
2019-09-17T06:37:52Z,42.805,6.029,13.2955,4.59990,2469.876,2019-9-17T08:38:15Z
2019-09-17T06:40:55Z,42.805,6.029,13.2957,4.59979,2469.867,2019-9-17T08:41:18Z
2019-09-17T06:43:58Z,42.805,6.029,13.2959,4.59979,2469.867,2019-9-17T08:44:21Z
2019-09-17T06:47:01Z,42.805,6.029,13.2961,4.59981,2469.89,2019-9-17T08:47:25Z
2019-09-17T06:50:05Z,42.805,6.029,13.2960,4.59983,2469.89,2019-9-17T08:50:28Z
2019-09-17T06:53:08Z,42.805,6.029,13.2961,4.59991,2469.89,2019-9-17T08:53:31Z
2019-09-17T06:56:11Z,42.805,6.029,13.2961,4.59983,2469.863,2019-9-17T08:56:34Z
2019-09-17T06:59:14Z,42.805,6.029,13.2955,4.59990,2469.914,2019-9-17T08:59:37Z
2019-09-17T07:02:17Z,42.805,6.029,13.2956,4.59984,2469.876,2019-9-17T09:02:41Z
2019-09-17T07:05:21Z,42.805,6.029,13.2960,4.59984,2469.89,2019-9-17T09:05:44Z
2019-09-17T07:08:24Z,42.805,6.029,13.2959,4.59983,2469.89,2019-9-17T09:08:47Z
2019-09-17T07:11:27Z,42.805,6.029,13.2954,4.59988,2469.876,2019-9-17T09:11:50Z
2019-09-17T07:14:30Z,42.805,6.029,13.2959,4.59979,2469.914,2019-9-17T09:14:54Z
2019-09-17T07:17:33Z,42.805,6.029,13.2961,4.59975,2469.89,2019-9-17T09:17:57Z
2019-09-17T07:20:37Z,42.805,6.029,13.2958,4.59974,2469.876,2019-9-17T09:21:00Z
2019-09-17T07:23:40Z,42.805,6.029,13.2959,4.59969,2469.923,2019-9-17T09:24:03Z
2019-09-17T07:26:43Z,42.805,6.029,13.2959,4.59976,2469.937,2019-9-17T09:27:07Z
2019-09-17T07:29:47Z,42.805,6.029,13.2960,4.59972,2469.9,2019-9-17T09:30:10Z
2019-09-17T07:32:50Z,42.805,6.029,13.2959,4.59969,2469.9,2019-9-17T09:33:13Z
2019-09-17T07:35:53Z,42.805,6.029,13.2957,4.59966,2469.9,2019-9-17T09:36:16Z
2019-09-17T07:38:56Z,42.805,6.029,13.2958,4.59966,2469.923,2019-9-17T09:39:19Z
2019-09-17T07:41:59Z,42.805,6.029,13.2955,4.59966,2469.886,2019-9-17T09:42:23Z
2019-09-17T07:45:03Z,42.805,6.029,13.2959,4.59962,2469.937,2019-9-17T09:45:26Z
2019-09-17T07:48:06Z,42.805,6.029,13.2959,4.59961,2469.923,2019-9-17T09:48:29Z
2019-09-17T07:51:09Z,42.805,6.029,13.2960,4.59966,2469.923,2019-9-17T09:51:32Z
2019-09-17T07:54:12Z,42.805,6.029,13.2957,4.59964,2469.937,2019-9-17T09:54:35Z
2019-09-17T07:57:15Z,42.805,6.029,13.2960,4.59971,2469.937,2019-9-17T09:57:39Z
2019-09-17T08:00:18Z,42.805,6.029,13.2957,4.59971,2469.96,2019-9-17T10:00:42Z
2019-09-17T08:03:22Z,42.805,6.029,13.2957,4.59976,2469.914,2019-9-17T10:03:45Z
2019-09-17T08:06:25Z,42.805,6.029,13.2957,4.59975,2469.914,2019-9-17T10:06:48Z
2019-09-17T08:09:28Z,42.805,6.029,13.2955,4.59966,2469.937,2019-9-17T10:09:51Z
2019-09-17T08:12:31Z,42.805,6.029,13.2959,4.59966,2469.9,2019-9-17T10:12:55Z
2019-09-17T08:15:34Z,42.805,6.029,13.2957,4.59970,2469.937,2019-9-17T10:15:58Z
2019-09-17T08:18:38Z,42.805,6.029,13.2958,4.59964,2469.937,2019-9-17T10:19:01Z
2019-09-17T08:21:41Z,42.805,6.029,13.2959,4.59976,2469.937,2019-9-17T10:22:04Z
2019-09-17T08:24:44Z,42.805,6.029,13.2958,4.59964,2469.923,2019-9-17T10:25:07Z
2019-09-17T08:27:47Z,42.805,6.029,13.2957,4.59971,2469.9,2019-9-17T10:28:10Z
2019-09-17T08:30:51Z,42.805,6.029,13.2960,4.59966,2469.937,2019-9-17T10:31:14Z
2019-09-17T08:33:54Z,42.805,6.029,13.2959,4.59963,2469.96,2019-9-17T10:34:17Z
2019-09-17T08:36:57Z,42.805,6.029,13.2961,4.59966,2469.923,2019-9-17T10:37:20Z
2019-09-17T08:40:00Z,42.805,6.029,13.2958,4.59969,2469.923,2019-9-17T10:40:23Z
2019-09-17T08:43:03Z,42.805,6.029,13.2961,4.59961,2469.9,2019-9-17T10:43:27Z
2019-09-17T08:46:07Z,42.805,6.029,13.2961,4.59967,2469.923,2019-9-17T10:46:30Z
2019-09-17T08:49:10Z,42.805,6.029,13.2954,4.59963,2469.937,2019-9-17T10:49:33Z
2019-09-17T08:52:13Z,42.805,6.029,13.2956,4.59963,2469.9,2019-9-17T10:52:36Z
2019-09-17T08:55:17Z,42.805,6.029,13.2957,4.59963,2469.937,2019-9-17T10:55:40Z
2019-09-17T08:58:20Z,42.805,6.029,13.2961,4.59964,2469.923,2019-9-17T10:58:43Z
2019-09-17T09:01:23Z,42.805,6.029,13.2957,4.59963,2469.9,2019-9-17T11:01:47Z
2019-09-17T09:04:27Z,42.805,6.029,13.2959,4.59965,2469.923,2019-9-17T11:04:50Z
2019-09-17T09:07:30Z,42.805,6.029,13.2958,4.59961,2469.914,2019-9-17T11:07:53Z
2019-09-17T09:10:33Z,42.805,6.029,13.2960,4.59964,2469.923,2019-9-17T11:10:56Z
2019-09-17T09:13:36Z,42.805,6.029,13.2961,4.59964,2469.937,2019-9-17T11:13:59Z
2019-09-17T09:16:39Z,42.805,6.029,13.2959,4.59962,2469.923,2019-9-17T11:17:03Z
2019-09-17T09:19:43Z,42.805,6.029,13.2960,4.59962,2469.9,2019-9-17T11:20:06Z
2019-09-17T09:22:46Z,42.805,6.029,13.2963,4.59966,2469.909,2019-9-17T11:23:09Z
2019-09-17T09:25:49Z,42.805,6.029,13.2958,4.59966,2469.923,2019-9-17T11:26:12Z
2019-09-17T09:28:52Z,42.805,6.029,13.2961,4.59963,2469.923,2019-9-17T11:29:16Z
2019-09-17T09:31:56Z,42.805,6.029,13.2957,4.59963,2469.9,2019-9-17T11:32:19Z
2019-09-17T09:34:59Z,42.805,6.029,13.2962,4.59964,2469.914,2019-9-17T11:35:22Z
2019-09-17T09:38:02Z,42.805,6.029,13.2960,4.59964,2469.9,2019-9-17T11:38:25Z
2019-09-17T09:41:05Z,42.805,6.029,13.2957,4.59966,2469.923,2019-9-17T11:41:28Z
2019-09-17T09:44:08Z,42.805,6.029,13.2957,4.59964,2469.9,2019-9-17T11:44:32Z
2019-09-17T09:47:12Z,42.805,6.029,13.2963,4.59966,2469.9,2019-9-17T11:47:35Z
2019-09-17T09:50:15Z,42.805,6.029,13.2960,4.59965,2469.876,2019-9-17T11:50:38Z
2019-09-17T09:53:18Z,42.805,6.029,13.2958,4.59961,2469.9,2019-9-17T11:53:41Z
2019-09-17T09:56:21Z,42.805,6.029,13.2958,4.59961,2469.914,2019-9-17T11:56:44Z
2019-09-17T09:59:24Z,42.805,6.029,13.2960,4.59962,2469.9,2019-9-17T11:59:48Z
2019-09-17T10:02:28Z,42.805,6.029,13.2959,4.59963,2469.923,2019-9-17T12:02:51Z
2019-09-17T10:05:31Z,42.805,6.029,13.2961,4.59966,2469.9,2019-9-17T12:05:54Z
2019-09-17T10:08:34Z,42.805,6.029,13.2956,4.59962,2469.876,2019-9-17T12:08:57Z
2019-09-17T10:11:37Z,42.805,6.029,13.2959,4.59960,2469.9,2019-9-17T12:12:00Z
2019-09-17T10:14:40Z,42.805,6.029,13.2961,4.59962,2469.914,2019-9-17T12:15:04Z
2019-09-17T10:17:44Z,42.805,6.029,13.2961,4.59963,2469.876,2019-9-17T12:18:07Z
2019-09-17T10:20:47Z,42.805,6.029,13.2957,4.59964,2469.9,2019-9-17T12:21:10Z
2019-09-17T10:23:50Z,42.805,6.029,13.2959,4.59961,2469.876,2019-9-17T12:24:13Z
2019-09-17T10:26:53Z,42.805,6.029,13.2958,4.59956,2469.876,2019-9-17T12:27:16Z
2019-09-17T10:29:56Z,42.805,6.029,13.2958,4.59958,2469.876,2019-9-17T12:30:20Z
2019-09-17T10:33:00Z,42.805,6.029,13.2963,4.59958,2469.876,2019-9-17T12:33:23Z
2019-09-17T10:36:03Z,42.805,6.029,13.2959,4.59965,2469.867,2019-9-17T12:36:26Z
2019-09-17T10:39:06Z,42.805,6.029,13.2959,4.59961,2469.876,2019-9-17T12:39:29Z
2019-09-17T10:42:10Z,42.805,6.029,13.2958,4.59958,2469.876,2019-9-17T12:42:33Z
2019-09-17T10:45:13Z,42.805,6.029,13.2961,4.59971,2469.876,2019-9-17T12:45:36Z
2019-09-17T10:48:16Z,42.805,6.029,13.2960,4.59961,2469.844,2019-9-17T12:48:39Z
2019-09-17T10:51:19Z,42.805,6.029,13.2957,4.59963,2469.83,2019-9-17T12:51:42Z
2019-09-17T10:54:23Z,42.805,6.029,13.2957,4.59966,2469.876,2019-9-17T12:54:46Z
2019-09-17T10:57:26Z,42.805,6.029,13.2961,4.59958,2469.853,2019-9-17T12:57:49Z
2019-09-17T11:00:29Z,42.805,6.029,13.2962,4.59960,2469.89,2019-9-17T13:00:52Z
2019-09-17T11:03:32Z,42.805,6.029,13.2956,4.59958,2469.876,2019-9-17T13:03:55Z
2019-09-17T11:06:35Z,42.805,6.029,13.2959,4.59958,2469.89,2019-9-17T13:06:59Z
2019-09-17T11:09:39Z,42.805,6.029,13.2961,4.59958,2469.853,2019-9-17T13:10:02Z
2019-09-17T11:12:42Z,42.805,6.029,13.2961,4.59961,2469.89,2019-9-17T13:13:05Z
2019-09-17T11:15:45Z,42.805,6.029,13.2961,4.59959,2469.876,2019-9-17T13:16:08Z
2019-09-17T11:18:48Z,42.805,6.029,13.2956,4.59961,2469.853,2019-9-17T13:19:11Z
2019-09-17T11:21:51Z,42.805,6.029,13.2958,4.59958,2469.853,2019-9-17T13:22:15Z
2019-09-17T11:24:55Z,42.805,6.029,13.2957,4.59958,2469.853,2019-9-17T13:25:18Z
2019-09-17T11:27:58Z,42.805,6.029,13.2960,4.59962,2469.853,2019-9-17T13:28:21Z
2019-09-17T11:31:01Z,42.805,6.029,13.2961,4.59961,2469.806,2019-9-17T13:31:25Z
2019-09-17T11:34:05Z,42.805,6.029,13.2958,4.59958,2469.867,2019-9-17T13:34:28Z
2019-09-17T11:37:08Z,42.805,6.029,13.2958,4.59961,2469.867,2019-9-17T13:37:31Z
2019-09-17T11:40:11Z,42.805,6.029,13.2957,4.59959,2469.83,2019-9-17T13:40:34Z
2019-09-17T11:43:15Z,42.805,6.029,13.2957,4.59961,2469.83,2019-9-17T13:43:38Z
2019-09-17T11:46:18Z,42.805,6.029,13.2964,4.59960,2469.806,2019-9-17T13:46:41Z
2019-09-17T11:49:21Z,42.805,6.029,13.2958,4.59961,2469.821,2019-9-17T13:49:44Z
2019-09-17T11:52:24Z,42.805,6.029,13.2961,4.59964,2469.806,2019-9-17T13:52:48Z
2019-09-17T11:55:28Z,42.805,6.029,13.2957,4.59962,2469.867,2019-9-17T13:55:51Z
2019-09-17T11:58:31Z,42.805,6.029,13.2958,4.59958,2469.853,2019-9-17T13:58:54Z
2019-09-17T12:01:34Z,42.805,6.029,13.2958,4.59962,2469.83,2019-9-17T14:01:57Z
2019-09-17T12:04:37Z,42.805,6.029,13.2958,4.59959,2469.844,2019-9-17T14:05:00Z
2019-09-17T12:07:40Z,42.805,6.029,13.2960,4.59964,2469.83,2019-9-17T14:08:04Z
2019-09-17T12:10:44Z,42.805,6.029,13.2959,4.59969,2469.783,2019-9-17T14:11:07Z
2019-09-17T12:13:47Z,42.805,6.029,13.2961,4.59961,2469.806,2019-9-17T14:14:10Z
2019-09-17T12:16:50Z,42.805,6.029,13.2958,4.59961,2469.844,2019-9-17T14:17:13Z
2019-09-17T12:19:53Z,42.805,6.029,13.2958,4.59962,2469.844,2019-9-17T14:20:17Z
2019-09-17T12:22:57Z,42.805,6.029,13.2961,4.59957,2469.83,2019-9-17T14:23:20Z
2019-09-17T12:26:00Z,42.805,6.029,13.2956,4.59964,2469.806,2019-9-17T14:26:23Z
2019-09-17T12:29:03Z,42.805,6.029,13.2961,4.59957,2469.821,2019-9-17T14:29:26Z
2019-09-17T12:32:07Z,42.805,6.029,13.2958,4.59956,2469.797,2019-9-17T14:32:30Z
2019-09-17T12:35:10Z,42.805,6.029,13.2958,4.59961,2469.806,2019-9-17T14:35:33Z
2019-09-17T12:38:13Z,42.805,6.029,13.2971,4.59956,2469.797,2019-9-17T14:38:36Z
2019-09-17T12:41:16Z,42.805,6.029,13.2961,4.59958,2469.821,2019-9-17T14:41:40Z
2019-09-17T12:44:19Z,42.805,6.029,13.2965,4.59961,2469.783,2019-9-17T14:44:43Z
2019-09-17T12:47:23Z,42.805,6.029,13.2965,4.59958,2469.783,2019-9-17T14:47:46Z
2019-09-17T12:50:26Z,42.805,6.029,13.2961,4.59958,2469.821,2019-9-17T14:50:49Z
2019-09-17T12:53:29Z,42.805,6.029,13.2961,4.59958,2469.797,2019-9-17T14:53:52Z
2019-09-17T12:56:32Z,42.805,6.029,13.2964,4.59956,2469.806,2019-9-17T14:56:56Z
2019-09-17T12:59:36Z,42.805,6.029,13.2959,4.59961,2469.821,2019-9-17T14:59:59Z
2019-09-17T13:02:39Z,42.805,6.029,13.2963,4.59960,2469.797,2019-9-17T15:03:02Z
2019-09-17T13:05:42Z,42.805,6.029,13.2963,4.59960,2469.76,2019-9-17T15:06:05Z
2019-09-17T13:08:45Z,42.805,6.029,13.2960,4.59959,2469.773,2019-9-17T15:09:09Z
2019-09-17T13:11:49Z,42.805,6.029,13.2960,4.59972,2469.797,2019-9-17T15:12:12Z
2019-09-17T13:14:52Z,42.805,6.029,13.2964,4.59961,2469.797,2019-9-17T15:15:15Z
2019-09-17T13:17:55Z,42.805,6.029,13.2957,4.59958,2469.806,2019-9-17T15:18:18Z
2019-09-17T13:20:58Z,42.805,6.029,13.2959,4.59960,2469.773,2019-9-17T15:21:21Z
2019-09-17T13:24:01Z,42.805,6.029,13.2958,4.59959,2469.76,2019-9-17T15:24:25Z
2019-09-17T13:27:04Z,42.805,6.029,13.2960,4.59979,2469.773,2019-9-17T15:27:28Z
2019-09-17T13:30:08Z,42.805,6.029,13.2957,4.59960,2469.806,2019-9-17T15:30:31Z
2019-09-17T13:33:11Z,42.805,6.029,13.2958,4.59959,2469.821,2019-9-17T15:33:34Z
2019-09-17T13:36:14Z,42.805,6.029,13.2958,4.59956,2469.76,2019-9-17T15:36:37Z
2019-09-17T13:39:17Z,42.805,6.029,13.2962,4.59956,2469.783,2019-9-17T15:39:41Z
2019-09-17T13:42:21Z,42.805,6.029,13.2960,4.59975,2469.797,2019-9-17T15:42:44Z
2019-09-17T13:45:24Z,42.805,6.029,13.2958,4.59956,2469.821,2019-9-17T15:45:47Z
2019-09-17T13:48:27Z,42.805,6.029,13.2957,4.59959,2469.76,2019-9-17T15:48:50Z
2019-09-17T13:51:30Z,42.805,6.029,13.2961,4.59957,2469.797,2019-9-17T15:51:54Z
2019-09-17T13:54:33Z,42.805,6.029,13.2958,4.59958,2469.76,2019-9-17T15:54:57Z
2019-09-17T13:57:37Z,42.805,6.029,13.2959,4.59959,2469.737,2019-9-17T15:58:00Z
2019-09-17T14:00:40Z,42.805,6.029,13.2957,4.59960,2469.76,2019-9-17T16:01:03Z
2019-09-17T14:03:43Z,42.805,6.029,13.2955,4.59958,2469.76,2019-9-17T16:04:06Z
2019-09-17T14:06:46Z,42.805,6.029,13.2958,4.59956,2469.773,2019-9-17T16:07:10Z
2019-09-17T14:09:50Z,42.805,6.029,13.2958,4.59958,2469.76,2019-9-17T16:10:13Z
2019-09-17T14:12:53Z,42.805,6.029,13.2961,4.59961,2469.773,2019-9-17T16:13:16Z
2019-09-17T14:15:56Z,42.805,6.029,13.2961,4.59985,2469.75,2019-9-17T16:16:19Z
2019-09-17T14:18:59Z,42.805,6.029,13.2959,4.59964,2469.797,2019-9-17T16:19:22Z
2019-09-17T14:22:02Z,42.805,6.029,13.2957,4.59959,2469.773,2019-9-17T16:22:26Z
2019-09-17T14:25:06Z,42.805,6.029,13.2962,4.59959,2469.737,2019-9-17T16:25:29Z
2019-09-17T14:28:09Z,42.805,6.029,13.2956,4.59957,2469.773,2019-9-17T16:28:32Z
2019-09-17T14:31:12Z,42.805,6.029,13.2958,4.59964,2469.783,2019-9-17T16:31:35Z
2019-09-17T14:34:15Z,42.805,6.029,13.2959,4.59958,2469.773,2019-9-17T16:34:38Z
2019-09-17T14:37:19Z,42.805,6.029,13.2956,4.59958,2469.75,2019-9-17T16:37:42Z
2019-09-17T14:40:22Z,42.805,6.029,13.2959,4.59958,2469.773,2019-9-17T16:40:45Z
2019-09-17T14:43:25Z,42.805,6.029,13.2957,4.59958,2469.773,2019-9-17T16:43:48Z
2019-09-17T14:46:28Z,42.805,6.029,13.2958,4.59957,2469.737,2019-9-17T16:46:51Z
2019-09-17T14:49:31Z,42.805,6.029,13.2959,4.59965,2469.737,2019-9-17T16:49:55Z
2019-09-17T14:52:35Z,42.805,6.029,13.2957,4.59957,2469.76,2019-9-17T16:52:58Z
2019-09-17T14:55:38Z,42.805,6.029,13.2953,4.59957,2469.783,2019-9-17T16:56:01Z
2019-09-17T14:58:41Z,42.805,6.029,13.2956,4.59957,2469.76,2019-9-17T16:59:04Z
2019-09-17T15:01:44Z,42.805,6.029,13.2957,4.59961,2469.783,2019-9-17T17:02:07Z
2019-09-17T15:04:47Z,42.805,6.029,13.2958,4.59966,2469.783,2019-9-17T17:05:11Z
2019-09-17T15:07:51Z,42.805,6.029,13.2959,4.59971,2469.737,2019-9-17T17:08:14Z
2019-09-17T15:10:54Z,42.805,6.029,13.2958,4.59973,2469.75,2019-9-17T17:11:17Z
2019-09-17T15:13:57Z,42.805,6.029,13.2958,4.59964,2469.76,2019-9-17T17:14:20Z